Weather History for Hatteras, NC

Change the Weather History Date:

Sunday, January 15, 2012

  Actual Average Record
Temperature  
Mean Temperature 42 °F 45 °F  
Max Temperature 47 °F 52 °F 74 °F (1937)
Min Temperature 36 °F 39 °F 19 °F (1964)
Degree Days  
Heating Degree Days 23 20  
Month to date heating degree days 245 293  
Since 1 July heating degree days 827 1100  
Cooling Degree Days 0 0  
Month to date cooling degree days 0 0  
Year to date cooling degree days 0 0  
Moisture  
Dew Point 27 °F    
Average Humidity 59    
Maximum Humidity 70    
Minimum Humidity 48    
Precipitation  
Precipitation 0.00 in 0.17 in 2.29 in (1995)
Month to date precipitation 3.93 2.55  
Year to date precipitation 3.93 2.55  
Snow  
Snow 0.00 in - - ()
Month to date snowfall 0.0  
Since 1 July snowfall 0.0  
Snow Depth 0.00 in    
Sea Level Pressure  
Sea Level Pressure 30.34 in    
Wind  
Wind Speed 8 mph (North)    
Max Wind Speed 17 mph    
Max Gust Speed 31 mph    
Visibility 10 miles    
Events      
T = Trace of Precipitation, MM = Missing Value Source: NWS Daily Summary

Daily Weather History Graph

Daily Weather History Graph

Search for Another Location

Airport:

Trip Planner

Search our weather history database for the weather conditions in past years. The results will help you decide how hot, cold, wet, or windy it might be!

Date:

Astronomy

Jan. 15, 2012 Rise Set
Actual Time 7:10 AM EST 5:13 PM EST
Civil Twilight 6:43 AM EST 5:40 PM EST
Nautical Twilight 6:11 AM EST 6:11 PM EST
Astronomical Twilight 5:41 AM EST 6:42 PM EST
Moon No Moon Rise 10:45 AM EST (1/15)
Length of Visible Light 10h 57m
Length of Day
10h 02m
Waning Gibbous, 58% of the Moon is Illuminated
Jan 15
Waning Gibbous
Jan 16
Last Quarter
Jan 23
New
Jan 30
First Quarter
Feb 7
Full

Hourly Weather History & Observations

Time (EST) Temp. Windchill Dew Point Humidity Pressure Visibility Wind Dir Wind Speed Gust Speed Precip Events Conditions
12:51 AM 45.0 °F 39.7 °F 26.1 °F 48% 30.19 in 10.0 mi WNW 10.4 mph 18.4 mph N/A   Overcast
1:51 AM 44.1 °F 39.5 °F 27.0 °F 51% 30.18 in 10.0 mi WNW 8.1 mph 16.1 mph N/A   Mostly Cloudy
2:51 AM 44.1 °F 40.1 °F 28.0 °F 53% 30.19 in 10.0 mi WNW 6.9 mph - N/A   Clear
3:51 AM 43.0 °F 39.5 °F 28.0 °F 56% 30.18 in 10.0 mi West 5.8 mph - N/A   Clear
4:51 AM 39.9 °F 37.8 °F 28.9 °F 65% 30.17 in 10.0 mi NW 3.5 mph - N/A   Mostly Cloudy
5:51 AM 37.0 °F - 28.9 °F 73% 30.19 in 10.0 mi Calm Calm - N/A   Overcast
6:51 AM 37.9 °F 33.5 °F 28.9 °F 70% 30.19 in 10.0 mi NE 5.8 mph - N/A   Partly Cloudy
7:51 AM 42.1 °F 39.2 °F 30.9 °F 65% 30.21 in 10.0 mi Variable 4.6 mph - N/A   Mostly Cloudy
8:51 AM 43.0 °F 37.7 °F 32.0 °F 65% 30.22 in 10.0 mi NNE 9.2 mph 21.9 mph N/A   Partly Cloudy
9:51 AM 44.1 °F 39.0 °F 30.9 °F 60% 30.26 in 10.0 mi North 9.2 mph 20.7 mph N/A   Overcast
10:51 AM 46.9 °F - 36.0 °F 66% 30.28 in 10.0 mi NNE 9.2 mph 25.3 mph N/A   Scattered Clouds
11:51 AM 45.0 °F 38.9 °F 33.1 °F 63% 30.31 in 10.0 mi NNE 12.7 mph 27.6 mph N/A   Scattered Clouds
12:51 PM 43.0 °F 36.0 °F 30.0 °F 60% 30.32 in 10.0 mi North 13.8 mph 28.8 mph N/A   Partly Cloudy
1:51 PM 43.0 °F 37.2 °F 28.0 °F 56% 30.34 in 10.0 mi North 10.4 mph 25.3 mph N/A   Partly Cloudy
2:51 PM 41.0 °F 34.7 °F 25.0 °F 53% 30.38 in 10.0 mi North 10.4 mph 24.2 mph N/A   Clear
3:51 PM 39.9 °F 32.5 °F 25.0 °F 55% 30.40 in 10.0 mi North 12.7 mph 23.0 mph N/A   Clear
4:51 PM 39.0 °F 34.0 °F 24.1 °F 55% 30.43 in 10.0 mi Variable 6.9 mph 20.7 mph N/A   Clear
5:51 PM 37.9 °F 30.9 °F 24.1 °F 57% 30.47 in 10.0 mi NNE 10.4 mph 20.7 mph N/A   Clear
6:51 PM 37.9 °F 32.7 °F 21.0 °F 51% 30.50 in 10.0 mi NNE 6.9 mph 20.7 mph N/A   Clear
7:51 PM 37.0 °F 29.3 °F 19.9 °F 50% 30.53 in 10.0 mi NNE 11.5 mph 21.9 mph N/A   Clear
8:51 PM 37.0 °F 31.0 °F 21.0 °F 52% 30.55 in 10.0 mi NNE 8.1 mph 17.3 mph N/A   Clear
9:51 PM 37.0 °F 30.4 °F 21.9 °F 54% 30.56 in 10.0 mi North 9.2 mph - N/A   Clear
10:51 PM 37.0 °F 31.0 °F 21.9 °F 54% 30.56 in 10.0 mi North 8.1 mph - N/A   Clear
11:51 PM 37.0 °F 32.4 °F 24.1 °F 59% 30.57 in 10.0 mi Variable 5.8 mph - N/A   Clear